When you browse on this site, cookies collect data to enhance your experience and personalize the content and advertising you see.
Visit our Privacy Policy to learn more. By continuing to use the site, you agree to this use of cookies and data.
  • In Slovakia
  • List of Countries
  • For 7 days
  • Water Temperature
  • Satellite Maps
  • Weather Map
  • Weather Widgets
  • user-avatar
    Login

    Hourly Weather Sevan

    Today, 11 December, Tuesday

    Time Temperature Precipitation Wind Pressure Humidity
    00:00 0°C° 0 mm 3 mps 639 mmHg 74%
    01:00 0°C° 0 mm 3 mps 639 mmHg 75%
    02:00 0°C° 0 mm 3 mps 639 mmHg 75%
    03:00 +1°C° 0 mm 2 mps 638 mmHg 77%
    04:00 +1°C° 0 mm 2 mps 638 mmHg 77%
    05:00 0°C° 0 mm 3 mps 639 mmHg 76%
    06:00 0°C° 0 mm 3 mps 639 mmHg 76%
    07:00 +1°C° 0 mm 3 mps 639 mmHg 73%
    08:00 +2°C° 0 mm 3 mps 639 mmHg 71%
    09:00 +2°C° 0 mm 3 mps 639 mmHg 68%
    10:00 +3°C° 0 mm 4 mps 638 mmHg 65%
    11:00 +4°C° 0 mm 4 mps 638 mmHg 63%
    12:00 +5°C° 0 mm 4 mps 638 mmHg 60%
    13:00 +5°C° 0 mm 4 mps 638 mmHg 60%
    14:00 +5°C° 0 mm 4 mps 637 mmHg 60%
    15:00 +5°C° 0 mm 4 mps 637 mmHg 60%
    16:00 +4°C° 0 mm 3 mps 637 mmHg 63%
    17:00 +3°C° 0 mm 3 mps 637 mmHg 67%
    18:00 +2°C° 0 mm 3 mps 637 mmHg 70%
    19:00 +2°C° 0.1 mm 3 mps 637 mmHg 71%
    20:00 +2°C° 0.1 mm 3 mps 637 mmHg 72%
    21:00 +2°C° 0.1 mm 3 mps 637 mmHg 73%
    22:00 +2°C° 0.5 mm 3 mps 637 mmHg 75%
    23:00 +2°C° 0.5 mm 3 mps 637 mmHg 77%

    Tomorrow, 12 December, Wednesday

    Time Temperature Precipitation Wind Pressure Humidity
    00:00 +2°C° 0.5 mm 3 mps 637 mmHg 80%
    01:00 +2°C° 0.5 mm 3 mps 637 mmHg 81%
    02:00 +2°C° 0.5 mm 3 mps 638 mmHg 81%
    03:00 +2°C° 0.5 mm 3 mps 638 mmHg 82%
    04:00 +2°C° 0.3 mm 3 mps 638 mmHg 83%
    05:00 +2°C° 0.3 mm 3 mps 638 mmHg 83%
    06:00 +2°C° 0.3 mm 3 mps 637 mmHg 83%
    07:00 +2°C° 0.2 mm 3 mps 637 mmHg 81%
    08:00 +1°C° 0.2 mm 4 mps 637 mmHg 78%
    09:00 +3°C° 0.2 mm 4 mps 637 mmHg 76%
    10:00 +2°C° 0.7 mm 5 mps 636 mmHg 76%
    11:00 +2°C° 0.7 mm 5 mps 636 mmHg 75%
    12:00 +3°C° 0.7 mm 5 mps 635 mmHg 75%
    13:00 +3°C° 0.9 mm 5 mps 635 mmHg 76%
    14:00 +3°C° 0.9 mm 5 mps 634 mmHg 76%
    15:00 +4°C° 0.9 mm 4 mps 634 mmHg 76%
    16:00 +4°C° 1.4 mm 4 mps 634 mmHg 78%
    17:00 +4°C° 1.4 mm 3 mps 634 mmHg 79%
    18:00 +3°C° 1.4 mm 3 mps 634 mmHg 81%
    19:00 +3°C° 1.2 mm 3 mps 634 mmHg 81%
    20:00 +3°C° 1.2 mm 3 mps 634 mmHg 82%
    21:00 +3°C° 1.2 mm 3 mps 634 mmHg 83%
    22:00 +3°C° 1.3 mm 3 mps 634 mmHg 83%
    23:00 +3°C° 1.3 mm 3 mps 634 mmHg 84%

    Day after tomorrow, 13 December, Thursday

    Time Temperature Precipitation Wind Pressure Humidity
    00:00 +3°C° 1.3 mm 3 mps 634 mmHg 85%
    01:00 +3°C° 1.7 mm 3 mps 634 mmHg 86%
    02:00 +2°C° 1.7 mm 3 mps 634 mmHg 86%
    03:00 +2°C° 1.7 mm 3 mps 634 mmHg 87%
    04:00 +2°C° 0.8 mm 3 mps 634 mmHg 87%
    05:00 +1°C° 0.8 mm 3 mps 634 mmHg 86%
    06:00 0°C° 0.8 mm 4 mps 635 mmHg 85%
    07:00 0°C° 0.1 mm 4 mps 635 mmHg 83%
    08:00 +1°C° 0.1 mm 3 mps 636 mmHg 81%
    09:00 +1°C° 0.1 mm 3 mps 637 mmHg 79%
    10:00 +1°C° 0.1 mm 4 mps 637 mmHg 76%
    11:00 +1°C° 0.1 mm 4 mps 637 mmHg 74%
    12:00 +3°C° 0.1 mm 4 mps 637 mmHg 71%
    13:00 +3°C° 0.1 mm 4 mps 638 mmHg 70%
    14:00 +3°C° 0.1 mm 3 mps 638 mmHg 69%
    15:00 +3°C° 0.1 mm 3 mps 638 mmHg 68%
    16:00 +1°C° 0 mm 3 mps 639 mmHg 69%
    17:00 +1°C° 0 mm 2 mps 639 mmHg 70%
    18:00 -2°C° 0 mm 2 mps 639 mmHg 71%
    19:00 -2°C° 0 mm 2 mps 640 mmHg 71%
    20:00 -3°C° 0 mm 2 mps 640 mmHg 71%
    21:00 -3°C° 0 mm 2 mps 641 mmHg 71%
    22:00 -3°C° 0 mm 2 mps 641 mmHg 71%
    23:00 -4°C° 0 mm 2 mps 641 mmHg 71%

    14 December, Friday

    Time Temperature Precipitation Wind Pressure Humidity
    00:00 -4°C° 0 mm 2 mps 641 mmHg 71%
    01:00 -5°C° 0 mm 2 mps 641 mmHg 71%
    02:00 -5°C° 0 mm 2 mps 641 mmHg 71%
    03:00 -5°C° 0 mm 2 mps 642 mmHg 71%
    04:00 -5°C° 0 mm 2 mps 642 mmHg 72%
    05:00 -5°C° 0 mm 2 mps 642 mmHg 72%
    06:00 -5°C° 0 mm 2 mps 642 mmHg 73%
    07:00 -5°C° 0 mm 2 mps 643 mmHg 72%
    08:00 -4°C° 0 mm 2 mps 643 mmHg 72%
    09:00 -3°C° 0 mm 2 mps 643 mmHg 71%
    10:00 -2°C° 0 mm 2 mps 643 mmHg 70%
    11:00 -1°C° 0 mm 2 mps 643 mmHg 68%
    12:00 0°C° 0 mm 3 mps 642 mmHg 67%
    13:00 0°C° 0 mm 3 mps 642 mmHg 68%
    14:00 +1°C° 0 mm 2 mps 642 mmHg 69%
    15:00 +1°C° 0 mm 2 mps 642 mmHg 70%
    16:00 +1°C° 0.1 mm 2 mps 642 mmHg 71%
    17:00 -1°C° 0.1 mm 2 mps 642 mmHg 72%
    18:00 -2°C° 0.1 mm 2 mps 642 mmHg 74%
    19:00 -2°C° 0.1 mm 2 mps 642 mmHg 74%
    20:00 -2°C° 0.1 mm 2 mps 642 mmHg 74%
    21:00 -2°C° 0.1 mm 2 mps 642 mmHg 74%
    22:00 -2°C° 0.1 mm 2 mps 642 mmHg 75%
    23:00 -2°C° 0.1 mm 2 mps 642 mmHg 75%

    15 December, Saturday

    Time Temperature Precipitation Wind Pressure Humidity
    00:00 -3°C° 0.1 mm 2 mps 642 mmHg 76%
    01:00 -3°C° 0.1 mm 2 mps 642 mmHg 76%
    02:00 -1°C° 0.1 mm 1 mps 643 mmHg 76%
    03:00 -1°C° 0.1 mm 1 mps 643 mmHg 76%
    04:00 -2°C° 0 mm 1 mps 643 mmHg 76%
    05:00 -2°C° 0 mm 1 mps 643 mmHg 76%
    06:00 -2°C° 0 mm 1 mps 643 mmHg 76%
    07:00 -1°C° 0 mm 1 mps 643 mmHg 76%
    08:00 0°C° 0 mm 1 mps 644 mmHg 75%
    09:00 0°C° 0 mm 1 mps 644 mmHg 74%
    10:00 -1°C° 0 mm 2 mps 645 mmHg 73%
    11:00 +1°C° 0 mm 2 mps 645 mmHg 71%
    12:00 +2°C° 0 mm 2 mps 645 mmHg 70%
    13:00 +2°C° 0 mm 2 mps 644 mmHg 70%
    14:00 +2°C° 0 mm 2 mps 644 mmHg 70%
    15:00 +2°C° 0 mm 2 mps 644 mmHg 70%
    16:00 +2°C° 0 mm 1 mps 644 mmHg 70%
    17:00 +1°C° 0 mm 1 mps 644 mmHg 70%
    18:00 -1°C° 0 mm 1 mps 645 mmHg 70%
    19:00 -1°C° 0 mm 1 mps 645 mmHg 70%
    20:00 -1°C° 0 mm 1 mps 645 mmHg 69%
    21:00 -1°C° 0 mm 1 mps 645 mmHg 69%
    22:00 -1°C° 0 mm 1 mps 645 mmHg 69%
    23:00 -1°C° 0 mm 1 mps 645 mmHg 70%

    16 December, Sunday

    Time Temperature Precipitation Wind Pressure Humidity
    00:00 -1°C° 0 mm 1 mps 645 mmHg 70%
    01:00 -1°C° 0 mm 1 mps 645 mmHg 70%
    02:00 -1°C° 0 mm 1 mps 645 mmHg 70%
    03:00 -1°C° 0 mm 1 mps 645 mmHg 70%
    04:00 -1°C° 0 mm 1 mps 645 mmHg 69%
    05:00 -1°C° 0 mm 1 mps 645 mmHg 69%
    06:00 -1°C° 0 mm 1 mps 645 mmHg 69%
    07:00 0°C° 0 mm 1 mps 645 mmHg 69%
    08:00 +1°C° 0 mm 1 mps 645 mmHg 69%
    09:00 +2°C° 0 mm 1 mps 646 mmHg 69%
    10:00 +3°C° 0 mm 1 mps 646 mmHg 68%
    11:00 +4°C° 0 mm 1 mps 646 mmHg 67%
    12:00 +4°C° 0 mm 2 mps 646 mmHg 66%
    13:00 +4°C° 0 mm 2 mps 645 mmHg 66%
    14:00 +5°C° 0 mm 1 mps 645 mmHg 66%
    15:00 +5°C° 0 mm 1 mps 645 mmHg 67%
    16:00 +4°C° 0 mm 1 mps 645 mmHg 66%
    17:00 +3°C° 0 mm 1 mps 645 mmHg 65%
    18:00 +2°C° 0 mm 1 mps 645 mmHg 65%
    19:00 +1°C° 0 mm 1 mps 645 mmHg 64%
    20:00 +1°C° 0 mm 1 mps 645 mmHg 63%
    21:00 +1°C° 0 mm 1 mps 645 mmHg 62%
    22:00 +1°C° 0 mm 1 mps 645 mmHg 62%
    23:00 0°C° 0 mm 1 mps 645 mmHg 63%
    Show more